Regional Weather Roundup
Issued by NWS

Home | Current Version | Previous Version | Text Only | Print | Product List | Glossary On
Versions: 1 2 3 4 5 6 7 8 9 10 11 12 13 14 15 16 17 18 19 20 21 22 23 24 25 26 27 28 29 30 31 32 33 34 35 36 37 38 39 40 41 42 43 44 45 46 47 48 49 50
000
ASUS43 KMPX 231410
RWRMN
WEATHER ROUNDUP FOR MINNESOTA
NATIONAL WEATHER SERVICE TWIN CITIES/CHANHASSEN MN
900 AM CDT THU OCT 23 2014


NOTE: "FAIR" INDICATES FEW OR NO CLOUDS BELOW 12,000 FEET WITH NO
SIGNIFICANT WEATHER AND/OR OBSTRUCTIONS TO VISIBILITY. N/A MEANS
CURRENT SKY AND/OR WEATHER CONDITIONS ARE NOT AVAILABLE.

MNZ060>063-068>070-231500-
   Twin Cities Metro

CITY           SKY/WX    TMP DP  RH WIND       PRES   REMARKS
TWIN CITIES    CLOUDY    53  51  93 VRB5      30.00S
ST PAUL        CLOUDY    51  50  96 SE5       30.01R
CRYSTAL        CLOUDY    55  51  86 S6        29.99R
BLAINE         CLOUDY    55  54  94 S3        29.99
LAKEVILLE        N/A     50  48  93 S3        30.01R
EDEN PRAIRIE   CLOUDY    53  51  93 S6        29.99R
SOUTH ST PAUL  CLOUDY    52  49  91 S3        30.00S
LAKE ELMO      CLOUDY    50  50 100 S6        30.01S FOG
$$
MNZ001>005-007-008-013>017-022>024-027-028-231500-
   Northwest Minnesota

CITY           SKY/WX    TMP DP  RH WIND       PRES   REMARKS
BEMIDJI        CLOUDY    48  47  97 S5        29.91R
HALLOCK        PTCLDY    43  43 100 S7        29.83R
ROSEAU         MOCLDY    48  45  87 S9        29.84R
WARROAD        CLOUDY    48  45  87 S6        29.84R
THIEF RVR FALL PTCLDY    45  43  93 S9        29.88R
CROOKSTON      CLEAR     43  41  93 S8        29.89R
FOSSTON        CLEAR     46  45  93 S10       29.90S
DETROIT LAKES    N/A     45  45 100 S6        29.94R FOG
MOORHEAD       CLEAR     43  43 100 S8        29.94R
PARK RAPIDS    CLOUDY    48  48 100 SW5       29.94R
MAHNOMEN       FAIR      46  44  93 S7        29.91R
$$
MNZ006-009>011-018-025>026-231500-
   North Central Minnesota

CITY           SKY/WX    TMP DP  RH WIND       PRES   REMARKS
BAUDETTE       CLOUDY    49  46  90 S8        29.86R
FLAG ISLAND    CLOUDY    48  46  93 S7        29.81S
INTL FALLS     CLOUDY    50  48  93 S6        29.89S
WASKISH        PTCLDY    48  48 100 CALM      29.88S
BIG FORK       CLOUDY    52  48  87 S8        29.92S
LONGVILLE      CLOUDY    50  48  93 SW3       29.94R
GRAND RAPIDS   CLOUDY    50  46  87 SW8       29.95R
CRANE LAKE     CLOUDY    46  46 100 S6        29.94R FOG
ORR            CLOUDY    48  46  93 S5        29.90S FOG
COOK           CLOUDY    46  46 100 S8        29.94R FOG
WALKER         CLOUDY    48  47  97 SW6       29.93R FOG
$$
MNZ012-019>021-037-231500-
   Northeast Minnesota

CITY           SKY/WX    TMP DP  RH WIND       PRES   REMARKS
DULUTH         FOG       48  46  93 SW6       29.96S VSB 1/4
ELY            CLOUDY    46  45  93 S5        29.94S
HIBBING        FOG       49  46  90 SW6       29.94R VSB 1
EVELETH        FOG       45  45 100 SW5       29.95S VSB 1/2
DULUTH HARBOR  CLOUDY    48  46  93 CALM      29.98S
TWO HARBORS    CLOUDY    50  37  62 CALM      29.95S HAZE
SILVER BAY     DRIZZLE   48  46  93 CALM      29.95S
GRAND MARAIS     N/A     47  45  93 CALM      30.00S
G MARAIS ARPRT DRIZZLE   43  39  87 SE6       29.99S
$$
MNZ029>031-032-039>041-046>048-054>057-064-231500-
   West Central Minnesota

CITY           SKY/WX    TMP DP  RH WIND       PRES   REMARKS
FERGUS FALLS   CLEAR     43  43 100 S3        29.97R
WHEATON        CLEAR     43  39  87 CALM      29.98R
MORRIS         FOG       41  39  93 SE5       29.97R VSB 1/2
ALEXANDRIA     SUNNY     47  46  97 SW5       29.97R
ELBOW LAKE     FAIR      42  42 100 S6        29.96R FOG
WADENA         FOG       46  45  93 S3        29.95R VSB<1/4
GLENWOOD       FOG       43  43 100 CALM      29.98R VSB<1/4
APPLETON       SUNNY     45  43  93 CALM      29.97R
BENSON         FOG       43  43 100 SW7       29.98R VSB 1/2
ORTONVILLE     SUNNY     46  43  87 W5        29.97R
MADISON        SUNNY     45  43  93 CALM      29.98R
WILLMAR        FAIR      46  45  93 SW5       30.00R FOG
$$
MNZ033>034-036-042>043-049>051-058-059-231500-
   Central Minnesota

CITY           SKY/WX    TMP DP  RH WIND       PRES   REMARKS
ST CLOUD       FOG       53  51  93 SW5       29.98R VSB 1/4
SAUK CENTRE    FOG       46  46 100 CALM      29.97S VSB 1/4
PAYNESVILLE    FOG       47  47 100 S5        29.98S VSB 1/2
AITKIN         CLOUDY    52  46  82 SW5       29.95R HAZE
PINE RIVER     CLOUDY    50  50 100 SW3       29.98R
BRAINERD       CLOUDY    51  50  96 SW7       29.96S
STAPLES        CLOUDY    48  48 100 SW5       29.96R FOG
LONG PRAIRIE   FOG       46  46 100 S5        29.97R VSB 1/4
LITTLE FALLS   CLOUDY    50  48  93 CALM      29.97S FOG
LITCHFIELD     FOG       48  48 100 CALM      29.99S VSB 1/4
BUFFALO        CLOUDY    53  51  92 S3        30.00R FOG
MAPLE LAKE     FOG       53  52  98 SW3       30.00R VSB 1/4
$$
MNZ037-044-045-052-053-231500-
   East Central Minnesota

CITY           SKY/WX    TMP DP  RH WIND       PRES   REMARKS
PRINCETON      CLOUDY    54  54 100 CALM      29.99R FOG
MORA           FOG       48  46  93 S3        29.99S VSB 1/2
CAMBRIDGE      HAZE      54  46  76 S3        29.97R VSB 1/2
RUSH CITY      CLOUDY    49  49  97 CALM      29.99S FOG
MOOSE LAKE     FOG       48  46  93 S5        29.96R VSB 1/2
HINCKLEY       FOG       50  50 100 CALM      29.98S VSB 1/4
CLOQUET        FOG       48  46  93 SW5       29.97R VSB 3/4
MCGREGOR       CLOUDY    50  50 100 SW3       29.96S
$$
MNZ071>073-080-081-089-090-097-098-231500-
   Southwest Minnesota

CITY           SKY/WX    TMP DP  RH WIND       PRES   REMARKS
MONTEVIDEO     SUNNY     45  45 100 CALM      30.00R FOG
GRANITE FALLS  FOG       42  42 100 SE3       30.01R VSB 1/2
CANBY          SUNNY     50  45  81 SW10      29.99S
MARSHALL       SUNNY     52  45  76 W13       29.98R
REDWOOD FALLS  SUNNY     47  46  97 SW9       30.00R
OLIVIA         MOSUNNY   46  45  93 SW7       29.99R FOG
PIPESTONE      FOG       46  45  93 CALM      30.02R VSB<1/4
WINDOM         FOG       48  48 100 SW7       30.02R VSB<1/4
WORTHINGTON    MOSUNNY   48  48 100 SW6       30.03R
JACKSON        FOG       50  46  87 SW6       30.03R VSB 1/2
TRACY          SUNNY     50  48  92 SW9       30.00R
SLAYTON        SUNNY     48  48 100 CALM      30.02S
$$
MNZ065>067-074>077-082>085-091>093-231500-
   South Central Minnesota

CITY           SKY/WX    TMP DP  RH WIND       PRES   REMARKS
MANKATO        CLOUDY    54  48  82 S5        30.01R
NEW ULM        FOG       46  46 100 SW6       30.00S VSB<1/4
ST JAMES       FOG       48  46  93 SW6       30.02S VSB 1/4
FAIRMONT       CLOUDY    52  46  82 W6        30.02R VSB 1/2
GLENCOE        FOG       52  52 100 SW3       29.99S VSB 1/4
FARIBAULT      CLOUDY    52  50  93 S5        30.02R FOG
OWATONNA       CLOUDY    50  48  93 S5        30.02R FOG
WASECA         CLOUDY    50  46  87 S3        30.03S FOG
ALBERT LEA     CLOUDY    50  50 100 S5        30.02R FOG
$$
MNZ078>079-086>088-094>096-231500-
   Southeast Minnesota

CITY           SKY/WX    TMP DP  RH WIND       PRES   REMARKS
ROCHESTER      CLOUDY    48  46  93 S12       30.04R FOG
STANTON        CLOUDY    51  49  90 SW3       30.00R
DODGE CENTER   DRIZZLE   48  48 100 SW6       30.02S
WINONA         LGT RAIN  48  46  93 SE3       30.05R
AUSTIN         FOG       48  46  93 S7        30.02R VSB 1
PRESTON        RAIN      46  45  95 S10       30.04R
$$
ABBREVIATIONS USED IN REMARKS
   TC - TEMPERATURES IN CELSIUS
  WCI - WIND CHILL INDEX
   HX - HEAT INDEX
  VSB - VISIBILITY
$$



USA.gov is the U.S. government's official web portal to all federal, state and local government web resources and services.